Willmar, MN

1:30 AM CDT on May 27, 2017 (GMT -0500)
Willmar

Weather History for KBDH - February, 2014

Change the Weather History Date:

Tuesday, February 25, 2014

  Actual Average (KBBB) Record (KBBB)
Temperature  
Mean Temperature -4 °F -  
Max Temperature 3 °F 32 °F 58 °F (1958)
Min Temperature -11 °F 12 °F -18 °F (1967)
Degree Days  
Heating Degree Days 69    
Moisture  
Dew Point -11 °F    
Average Humidity 70    
Maximum Humidity 78    
Minimum Humidity 61    
Precipitation  
Precipitation 0.00 in - - ()
Sea Level Pressure  
Sea Level Pressure 30.34 in    
Wind  
Wind Speed 12 mph (WNW)    
Max Wind Speed 26 mph    
Max Gust Speed 32 mph    
Visibility 9 miles    
Events      
Averages and records for this station are not official NWS values.
T = Trace of Precipitation, MM = Missing Value Source: NWS Daily Summary

Daily Weather History Graph

Daily Weather History Graph

Search for Another Location

Airport or City:

Trip Planner

Search our weather history database for the weather conditions in past years. The results will help you decide how hot, cold, wet, or windy it might be!

Date:

Astronomy

Feb. 25, 2014 Rise Set
Actual Time 7:05 AM CST 6:02 PM CST
Civil Twilight 6:35 AM CST 6:32 PM CST
Nautical Twilight 6:01 AM CST 7:06 PM CST
Astronomical Twilight 5:27 AM CST 7:40 PM CST
Moon 4:08 AM CST (2/25) 2:01 PM CST (2/25)
Length of Visible Light 11h 56m
Length of Day
10h 57m
Waning Crescent, 18% of the Moon is Illuminated
Feb 25
Waning Crescent
Mar 1
New
Mar 8
First Quarter
Mar 16
Full
Mar 23
Last Quarter

Hourly Weather History & Observations

Time (CST) Temp. Windchill Dew Point Humidity Pressure Visibility Wind Dir Wind Speed Gust Speed Precip Events Conditions
12:16 AM -0.4 °F -14.7 °F -5.8 °F 78% 30.36 in 10.0 mi WNW 8.1 mph - N/A   Clear
12:35 AM -4.0 °F -19.0 °F -9.4 °F 78% 30.35 in 10.0 mi NW 8.1 mph - N/A   Clear
12:56 AM -4.0 °F -19.0 °F -9.4 °F 78% 30.35 in 10.0 mi NW 8.1 mph - N/A   Clear
1:16 AM -2.2 °F -16.8 °F -9.4 °F 71% 30.35 in 10.0 mi WNW 8.1 mph - N/A   Clear
1:35 AM -4.0 °F -17.8 °F -9.4 °F 78% 30.35 in 10.0 mi WNW 6.9 mph - N/A   Clear
1:56 AM -5.8 °F -18.4 °F -11.2 °F 77% 30.34 in 10.0 mi WNW 5.8 mph - N/A   Clear
2:16 AM -5.8 °F -21.2 °F -11.2 °F 77% 30.35 in 10.0 mi West 8.1 mph - N/A   Clear
2:35 AM -5.8 °F -21.2 °F -11.2 °F 77% 30.35 in 10.0 mi WNW 8.1 mph - N/A   Clear
2:56 AM -5.8 °F -21.2 °F -11.2 °F 77% 30.34 in 10.0 mi WNW 8.1 mph - N/A   Clear
3:16 AM -4.0 °F -20.2 °F -11.2 °F 71% 30.34 in 10.0 mi WNW 9.2 mph - N/A   Scattered Clouds
3:35 AM -5.8 °F -24.4 °F -11.2 °F 77% 30.34 in 10.0 mi West 11.5 mph - N/A   Scattered Clouds
3:56 AM -5.8 °F -22.4 °F -11.2 °F 77% 30.33 in 10.0 mi West 9.2 mph - N/A   Clear
4:16 AM -5.8 °F -21.2 °F -11.2 °F 77% 30.33 in 10.0 mi West 8.1 mph - N/A   Clear
4:35 AM -5.8 °F -22.4 °F -13.0 °F 71% 30.32 in 10.0 mi WNW 9.2 mph - N/A   Clear
4:56 AM -7.6 °F -23.4 °F -13.0 °F 77% 30.31 in 10.0 mi West 8.1 mph - N/A   Clear
5:16 AM -7.6 °F -23.4 °F -14.8 °F 71% 30.32 in 10.0 mi West 8.1 mph - N/A   Clear
5:35 AM -7.6 °F -22.1 °F -14.8 °F 71% 30.31 in 10.0 mi West 6.9 mph - N/A   Clear
5:56 AM -7.6 °F -23.4 °F -14.8 °F 71% 30.31 in 10.0 mi West 8.1 mph - N/A   Clear
6:16 AM -9.4 °F -25.6 °F -14.8 °F 77% 30.31 in 10.0 mi West 8.1 mph - N/A   Clear
6:35 AM -7.6 °F -23.4 °F -14.8 °F 71% 30.30 in 10.0 mi West 8.1 mph - N/A   Clear
6:56 AM -7.6 °F -23.4 °F -14.8 °F 71% 30.30 in 10.0 mi West 8.1 mph - N/A   Clear
7:16 AM -9.4 °F -24.3 °F -16.6 °F 71% 30.30 in 10.0 mi West 6.9 mph - N/A   Clear
7:35 AM -9.4 °F -25.6 °F -16.6 °F 71% 30.30 in 10.0 mi West 8.1 mph - N/A   Clear
7:55 AM -7.6 °F -24.6 °F -14.8 °F 71% 30.30 in 10.0 mi West 9.2 mph - N/A   Clear
8:16 AM -7.6 °F -22.1 °F -14.8 °F 71% 30.30 in 10.0 mi West 6.9 mph - N/A   Clear
8:35 AM -5.8 °F -22.4 °F -14.8 °F 65% 30.30 in 10.0 mi West 9.2 mph - N/A   Clear
8:55 AM -5.8 °F -22.4 °F -14.8 °F 65% 30.30 in 10.0 mi West 9.2 mph - N/A   Clear
9:16 AM -5.8 °F -21.2 °F -14.8 °F 65% 30.31 in 10.0 mi West 8.1 mph - N/A   Clear
9:35 AM -4.0 °F -22.1 °F -11.2 °F 71% 30.31 in 10.0 mi West 11.5 mph - N/A   Clear
9:55 AM -2.2 °F -19.9 °F -11.2 °F 66% 30.31 in 10.0 mi WNW 11.5 mph - N/A   Clear
10:16 AM -0.4 °F -18.4 °F -9.4 °F 66% 30.30 in 10.0 mi WNW 12.7 mph - N/A   Clear
10:35 AM 1.4 °F -18.2 °F -7.6 °F 66% 30.30 in 10.0 mi WNW 16.1 mph 20.7 mph N/A   Clear
10:55 AM 1.4 °F -20.5 °F -7.6 °F 66% 30.30 in 10.0 mi NW 20.7 mph - N/A   Clear
11:15 AM 3.2 °F -18.6 °F -7.6 °F 61% 30.30 in 10.0 mi NW 21.9 mph 27.6 mph N/A   Clear
11:35 AM 3.2 °F -19.5 °F -7.6 °F 61% 30.30 in 5.0 mi NW 24.2 mph - N/A   Haze
11:56 AM 3.2 °F -19.5 °F -5.8 °F 66% 30.30 in 10.0 mi NW 24.2 mph - N/A   Clear
12:15 PM 3.2 °F -19.5 °F -5.8 °F 66% 30.30 in 7.0 mi NW 24.2 mph 28.8 mph N/A   Clear
12:35 PM 3.2 °F -19.5 °F -5.8 °F 66% 30.31 in 10.0 mi NW 24.2 mph 29.9 mph N/A   Mostly Cloudy
12:56 PM 3.2 °F -20.3 °F -7.6 °F 61% 30.31 in 5.0 mi NW 26.5 mph 29.9 mph N/A   Haze
1:15 PM 1.4 °F -21.4 °F -7.6 °F 66% 30.31 in 10.0 mi WNW 23.0 mph 32.2 mph N/A   Mostly Cloudy
1:35 PM 1.4 °F -21.9 °F -7.6 °F 66% 30.31 in 4.0 mi NW 24.2 mph - N/A   Haze
1:56 PM 1.4 °F -22.7 °F -7.6 °F 66% 30.31 in 2.5 mi NW 26.5 mph 29.9 mph N/A   Haze
2:15 PM 1.4 °F -22.7 °F -7.6 °F 66% 30.32 in 2.5 mi NW 26.5 mph 32.2 mph N/A   Haze
2:35 PM 1.4 °F -21.9 °F -7.6 °F 66% 30.32 in 4.0 mi NNW 24.2 mph 31.1 mph N/A   Haze
2:56 PM 1.4 °F -21.4 °F -7.6 °F 66% 30.32 in 7.0 mi NW 23.0 mph 26.5 mph N/A   Clear
3:15 PM 1.4 °F -21.9 °F -7.6 °F 66% 30.32 in 7.0 mi NW 24.2 mph - N/A   Clear
3:35 PM 1.4 °F -20.5 °F -7.6 °F 66% 30.32 in 10.0 mi NW 20.7 mph - N/A   Clear
3:56 PM 1.4 °F -21.0 °F -7.6 °F 66% 30.33 in 10.0 mi NW 21.9 mph 27.6 mph N/A   Clear
4:15 PM -0.4 °F -22.8 °F -9.4 °F 66% 30.33 in 10.0 mi NW 20.7 mph - N/A   Clear
4:36 PM -0.4 °F -21.2 °F -9.4 °F 66% 30.34 in 10.0 mi NW 17.3 mph - N/A   Clear
4:56 PM -0.4 °F -21.7 °F -9.4 °F 66% 30.34 in 10.0 mi NW 18.4 mph - N/A   Clear
5:15 PM -0.4 °F -21.7 °F -9.4 °F 66% 30.35 in 10.0 mi NW 18.4 mph 25.3 mph N/A   Clear
5:35 PM -0.4 °F -21.2 °F -9.4 °F 66% 30.36 in 10.0 mi NW 17.3 mph - N/A   Clear
5:56 PM -2.2 °F -23.5 °F -9.4 °F 71% 30.36 in 10.0 mi NW 17.3 mph - N/A   Clear
6:15 PM -2.2 °F -25.2 °F -9.4 °F 71% 30.37 in 10.0 mi NW 20.7 mph 26.5 mph N/A   Clear
6:35 PM -2.2 °F -23.5 °F -11.2 °F 66% 30.38 in 10.0 mi NW 17.3 mph - N/A   Clear
6:56 PM -2.2 °F -24.1 °F -11.2 °F 66% 30.38 in 10.0 mi NW 18.4 mph - N/A   Clear
7:15 PM -4.0 °F -24.5 °F -11.2 °F 71% 30.38 in 10.0 mi NW 15.0 mph - N/A   Clear
7:35 PM -4.0 °F -25.2 °F -11.2 °F 71% 30.38 in 10.0 mi NW 16.1 mph - N/A   Clear
7:56 PM -4.0 °F -25.2 °F -11.2 °F 71% 30.38 in 10.0 mi NW 16.1 mph - N/A   Clear
8:15 PM -5.8 °F -26.0 °F -13.0 °F 71% 30.38 in 10.0 mi NW 13.8 mph - N/A   Clear
8:35 PM -5.8 °F -25.2 °F -13.0 °F 71% 30.39 in 10.0 mi NW 12.7 mph - N/A   Clear
8:56 PM -5.8 °F -23.4 °F -13.0 °F 71% 30.39 in 10.0 mi WNW 10.4 mph - N/A   Clear
9:15 PM -5.8 °F -24.4 °F -14.8 °F 65% 30.39 in 10.0 mi NW 11.5 mph - N/A   Clear
9:35 PM -7.6 °F -23.4 °F -14.8 °F 71% 30.38 in 10.0 mi WNW 8.1 mph - N/A   Clear
9:56 PM -7.6 °F -23.4 °F -14.8 °F 71% 30.39 in 10.0 mi WNW 8.1 mph - N/A   Clear
10:15 PM -7.6 °F -24.6 °F -14.8 °F 71% 30.39 in 10.0 mi WNW 9.2 mph - N/A   Clear
10:35 PM -9.4 °F -26.8 °F -14.8 °F 77% 30.38 in 10.0 mi West 9.2 mph - N/A   Clear
10:56 PM -9.4 °F -24.3 °F -16.6 °F 71% 30.38 in 10.0 mi West 6.9 mph - N/A   Clear
11:15 PM -11.2 °F -24.8 °F -16.6 °F 77% 30.37 in 7.0 mi West 5.8 mph - N/A   Clear
11:35 PM -11.2 °F -26.4 °F -16.6 °F 77% 30.37 in 10.0 mi West 6.9 mph - N/A   Clear
11:56 PM -11.2 °F -23.0 °F -16.6 °F 77% 30.36 in 10.0 mi West 4.6 mph - N/A   Clear